2018-102D (43834 NORAD) Tracking and Keplerian Element Data

This shows tracking and keplerian element data for the satellite.

Feedback or suggestion? Click here.




ElementValue
Catalog43834
Name2018-102D
Epoch Orbit452
Epoch Day6.08140943
Epoch Year2019
RAAN83.3176
Inclination97.6239
Eccentricity0.0014867
Argument of Perigee167.0452
Mean Anonmoly245.4689
Mean Motion15.08365254
Decay Rate8.26E-06
L11 43834U 18102D 19006.08140943 .00000826 00000-0 57135-4 0 9990
L22 43834 97.6239 83.3176 0014867 167.0452 245.4689 15.08365254 4527

Live tracking and technical data element details for 2018-102D (NORAD 43834). 2018-102D can be tracked NOW for your location showing map with azimuth and elevation plus other details from your city location.

Track the satellite on the map from your city or location and see movement details for azimuth, elevation, latitude, longitude, range, height, and movement on the map or in text.







IsCatalogInMostPopularTable: catalog: 43834, numindb: 39
Update: records affected: 1



GetName: 43834 2018-102D

Hit Count: updated at: Sun, 26 May 2019 09:54:15 GMT